map of EWN home
EWN - Airport
Location
City:  New Bern, North Carolina, United States
Name:Coastal Carolina Regional
ICAO:KEWN
IATA:EWN
FAA LID:EWN

Details
Type:Airport (Part 139 Class I)
Use:Public/Civil
Latitude:3504'22"N (35.072853)
Longitude:7702'35"W (-77.043019)
Datum:WGS 1984
Elevation:18 ft (5 m)
Variation:10.11W (WMM2015 magnetic declination)
-0.03 annual change
Runways:2
Longest:6453 × 150 ft (1967 × 45.5 m), paved

Time
Time Zone:UTC-5 (DST-4)
Local Time:

Weather
METAR:KEWN 200354Z AUTO 00000KT 5SM BR CLR 22/22 A3002 RMK AO2 SLP166 T02220222
TAF:KEWN 192320Z 2000/2024 VRB03KT P6SM SKC
FM201700 06005KT P6SM FEW050
FM202300 07006KT P6SM FEW030

Related Locations
Nearby:
Farthest:YAUG: 11748 mi / 18906 km
Augusta [Augusta Airport], WA, AU

Find:

   beyond  
but within

Other Information
Maps:
NOTAMs:
Links:
Sources:

  
  • flag of United States
  • flag of North Carolina
  

Airport Diagram

Airport diagram for EWN

Airport diagram PDF

Sectional Chart

Flight Planning
at skyvector.com

Satellite Image

Google Maps Satellite view

 

Copyright © 2004-2018 Karl L. Swartz. All rights reserved.
The Great Circle Mapper name and logo are trademarks of the Great Circle Mapper.
All other trademarks mentioned herein belong to their respective owners.
Please see credits for attibutions and further copyright information.

  Follow gcmap on Facebook Follow gcmap on Twitter Follow gcmap on Google+ GCmap on LinkedIn

hCard Microformat

Geo Microformat